TimeEST,TemperatureF,Dew PointF,Humidity,Sea Level PressureIn,VisibilityMPH,Wind Direction,Wind SpeedMPH,Gust SpeedMPH,PrecipitationIn,Events,Conditions,WindDirDegrees,DateUTC
12:53 AM,41.0,39.0,93,30.17,7.0,Calm,Calm,-,N/A,,Clear,0,2012-11-22 05:53:00
1:53 AM,39.9,37.9,93,30.17,6.0,Calm,Calm,-,N/A,,Clear,0,2012-11-22 06:53:00
2:53 AM,39.0,37.0,93,30.18,6.0,Calm,Calm,-,N/A,,Clear,0,2012-11-22 07:53:00
3:53 AM,39.0,37.0,93,30.19,5.0,Calm,Calm,-,N/A,,Clear,0,2012-11-22 08:53:00
4:53 AM,37.0,35.1,93,30.19,4.0,Calm,Calm,-,N/A,,Clear,0,2012-11-22 09:53:00
5:53 AM,36.0,35.1,97,30.21,7.0,Calm,Calm,-,N/A,,Clear,0,2012-11-22 10:53:00
6:53 AM,36.0,35.1,97,30.22,5.0,Calm,Calm,-,N/A,,Clear,0,2012-11-22 11:53:00
7:53 AM,37.0,36.0,96,30.24,5.0,Calm,Calm,-,N/A,,Clear,0,2012-11-22 12:53:00
8:53 AM,44.1,42.1,93,30.25,5.0,Calm,Calm,-,N/A,,Clear,0,2012-11-22 13:53:00
9:53 AM,53.1,46.0,77,30.26,10.0,Calm,Calm,-,N/A,,Clear,0,2012-11-22 14:53:00
10:53 AM,59.0,43.0,55,30.27,10.0,SE,4.6,-,N/A,,Clear,130,2012-11-22 15:53:00
11:53 AM,64.0,36.0,35,30.24,10.0,Variable,5.8,-,N/A,,Clear,0,2012-11-22 16:53:00
12:53 PM,66.9,37.9,34,30.20,10.0,Variable,4.6,-,N/A,,Clear,0,2012-11-22 17:53:00
1:53 PM,69.1,39.0,33,30.18,10.0,Variable,3.5,-,N/A,,Clear,0,2012-11-22 18:53:00
2:53 PM,70.0,39.9,33,30.15,10.0,SSE,4.6,-,N/A,,Clear,150,2012-11-22 19:53:00
3:53 PM,69.1,39.9,35,30.15,10.0,South,3.5,-,N/A,,Clear,170,2012-11-22 20:53:00
4:53 PM,68.0,39.9,36,30.15,10.0,Calm,Calm,-,N/A,,Clear,0,2012-11-22 21:53:00
5:53 PM,59.0,41.0,51,30.16,10.0,Calm,Calm,-,N/A,,Clear,0,2012-11-22 22:53:00
6:53 PM,53.1,41.0,64,30.17,10.0,Calm,Calm,-,N/A,,Clear,0,2012-11-22 23:53:00
7:53 PM,50.0,42.1,74,30.17,10.0,Calm,Calm,-,N/A,,Clear,0,2012-11-23 00:53:00
8:53 PM,46.9,41.0,80,30.18,10.0,Calm,Calm,-,N/A,,Clear,0,2012-11-23 01:53:00
9:53 PM,46.0,41.0,83,30.18,10.0,Calm,Calm,-,N/A,,Clear,0,2012-11-23 02:53:00
10:53 PM,44.1,39.9,85,30.18,10.0,Calm,Calm,-,N/A,,Clear,0,2012-11-23 03:53:00
11:53 PM,42.1,39.0,89,30.17,10.0,Calm,Calm,-,N/A,,Clear,0,2012-11-23 04:53:00